User: anonymous   Login
Location: Theydon Bois
(51.6750°N, 0.1050°E)
Time: 00:53:06
(UTC+00:00)
Language:

USA 234 - Orbit

View from above orbital plane
View from above orbital plane
View from above satellite
View from above satellite

Ground track
Ground track

The orbit data is extracted from the following two-line orbital elements,

1 38109U 12014A   17329.80451167 0.00000000  00000-0  00000-0 0    06
2 38109 122.9976 136.8282 0004000 179.9215 180.0785 13.41405639    02
Epoch (UTC): 25 November 2017 19:18:29
Eccentricity: 0.0004000
inclination: 122.9976°
perigee height: 1101 km
apogee height: 1107 km
right ascension of ascending node: 136.8282°
argument of perigee: 179.9215°
revolutions per day: 13.41405639
mean anomaly at epoch: 180.0785°
orbit number at epoch: 0

The dashed part of the orbit path shows where the satellite is in the earth's shadow,  

DLR